This is the latest recevied weather packets stored in our database for station/object DB8NZ-22. If no packets are shown the sender has not sent any weather packets the latest 1 day(s).
| Time | Temp. | Humidity | Pressure | Rain* | Wind** | Luminosity | Snow |
|---|---|---|---|---|---|---|---|
| 1778359771 | 16.67° C | 49% | 1016.2 hPa | - | - | - | - |
| 1778358871 | 16.67° C | 47% | 1016.2 hPa | - | - | - | - |
| 1778357970 | 17.22° C | 47% | 1016.2 hPa | - | - | - | - |
| 1778357070 | 17.78° C | 46% | 1016.3 hPa | - | - | - | - |
| 1778356170 | 18.33° C | 45% | 1016.2 hPa | - | - | - | - |
| 1778355270 | 18.89° C | 44% | 1016.1 hPa | - | - | - | - |
| 1778354369 | 19.44° C | 44% | 1016 hPa | - | - | - | - |
| 1778353469 | 20° C | 43% | 1015.8 hPa | - | - | - | - |
| 1778352569 | 21.11° C | 42% | 1015.6 hPa | - | - | - | - |
| 1778351669 | 21.67° C | 41% | 1015.5 hPa | - | - | - | - |
| 1778350769 | 22.22° C | 40% | 1015.7 hPa | - | - | - | - |
| 1778349869 | 22.78° C | 38% | 1015.5 hPa | - | - | - | - |
| 1778348969 | 23.33° C | 37% | 1015.5 hPa | - | - | - | - |
| 1778348069 | 23.89° C | 35% | 1015.6 hPa | - | - | - | - |
| 1778347169 | 25° C | 33% | 1015.7 hPa | - | - | - | - |
| 1778346269 | 28.89° C | 29% | 1015.6 hPa | - | - | - | - |
| 1778345369 | 30.56° C | 27% | 1015.5 hPa | - | - | - | - |
| 1778344468 | 30.56° C | 28% | 1015.7 hPa | - | - | - | - |
| 1778343568 | 30.56° C | 28% | 1015.8 hPa | - | - | - | - |
| 1778342668 | 30° C | 29% | 1015.9 hPa | - | - | - | - |
* Rain since midnight (hover to see other rain measurements)
** Current wind speed in m/s (hover to see current wind gust speed)